Regional Weather Roundup
Issued by NWS

Home | Current Version | Previous Version | Graphics & Text | Print | Product List | Glossary On
Versions: 1 2 3 4 5 6 7 8 9 10 11 12 13 14 15 16 17 18 19 20 21 22 23 24 25 26 27 28 29 30 31 32 33 34 35 36 37 38 39 40 41 42 43 44 45 46 47 48 49 50
430
ASUS43 KFSD 250810
RWRSD

WEATHER ROUNDUP FOR SOUTH DAKOTA
NATIONAL WEATHER SERVICE SIOUX FALLS SD
300 AM CDT TUE APR 25 2017

NOTE: "FAIR" INDICATES FEW OR NO CLOUDS BELOW 12,000 FEET WITH NO
SIGNIFICANT WEATHER AND/OR OBSTRUCTIONS TO VISIBILITY.


SDZ001>005-009-010-012>017-250900-
NORTHWEST AND NORTH CENTRAL SOUTH DAKOTA

CITY           SKY/WX    TMP DP  RH WIND       PRES   REMARKS
BUFFALO          N/A     31  29  92 NE16      29.63S WCI  20
FAITH            N/A     32  30  92 NE17      29.68F WCI  21
MOBRIDGE       CLOUDY    36  29  75 N15       29.69R
$$

SDZ012>016-024>037-041>051-057-063-072>074-250900-
SOUTHWEST AND SOUTH CENTRAL SOUTH DAKOTA

CITY           SKY/WX    TMP DP  RH WIND       PRES   REMARKS
RAPID CTY ARPT CLOUDY    37  34  89 E7        29.65S
PIERRE         CLOUDY    36  32  85 N15       29.67R
CUSTER         LGT SNOW  32  30  92 E15       29.58F FOG     WCI  22
ELLSWORTH AFB  MIX PCPN  37  36  93 NE7       29.65
PHILIP         CLOUDY    38  34  85 NE15      29.66F
PINE RIDGE     RAIN      43  41  93 NE10      29.62R FOG
SPEARFISH      FOG       36  36 100 E17G24    29.62F VSB 1/2
WINNER         CLOUDY    39  36  89 N10       29.64F
$$

SDZ004>011-016>023-039-040-250900-
NORTHEAST SOUTH DAKOTA

CITY           SKY/WX    TMP DP  RH WIND       PRES   REMARKS
ABERDEEN       CLOUDY    35  30  82 N16       29.67R WCI  25
WATERTOWN      CLOUDY    37  36  96 N17       29.57S
BROOKINGS      CLOUDY    38  36  92 N12       29.58R
SISSETON         N/A     35  35 100 N20       29.60S WCI  24
$$

SDZ017-020-022-023-036>040-048>070-250900-
SOUTHEAST SOUTH DAKOTA

CITY           SKY/WX    TMP DP  RH WIND       PRES   REMARKS
SIOUX FALLS    CLOUDY    42  40  92 N12       29.57S
HURON          CLOUDY    37  35  92 N15       29.66R
CHAMBERLAIN    CLOUDY    41  37  85 NW12      29.64F
MITCHELL       CLOUDY    41  36  82 N15       29.63F
YANKTON        CLOUDY    41  34  75 NW14G21   29.59R
$$

ABBREVIATIONS USED IN REMARKS
   TC - TEMPERATURE IN CELSIUS
  WCI - WIND CHILL INDEX
   HX - HEAT INDEX
  VSB - VISIBILITY





USA.gov is the U.S. government's official web portal to all federal, state and local government web resources and services.